DMSP 5D-2 F11 DEB, 28325

Orbit data source: Space-Track

DMSP 5D-2 F11 DEB, 28325 is space debris in SSO originally from a launch on Thu, 28 Nov 1991 UTC launched from the Air Force Western Test Range (AFWTR). Debris objects in space refer to the collection of defunct objects orbiting the Earth. Examples of debris include non-operational satellites, rocket bodies, and fragments generated from explosions, collisions, or faulty payload assembly.

Loading next visibility...
Identifier
28325, 1991-082AN
Orbit
SSO
Country
Flag of USUS
Related business
Manufacturer
Unknown
Mission
Spacecraft
Bus & Motor
Unknown
Mass
Unknown
Launch date (UTC)
1991-11-28 (34 years ago)
Launch vehicle
Unknown
Launch site
Air Force Western Test Range (AFWTR)
Object type
Payload
Rocket body
Debris
Shape & HBR
Unknown shape, 0.1 m
Radar Cross Section
Small (<0.1 m²)

Expand to show TLE details & history
Last TLE update: 9 hours ago

TLE from 9 hours ago
0 DMSP 5D-2 F11 DEB
1 28325U 91082AN  26121.16344007  .00040560  00000-0  50607-2 0  9992
2 28325  98.5690   8.1355 0025204 277.7507 234.2928 14.82024690135880
Epoch: 2026-05-01T03:55Z
TLE epoch observation values (Epoch: 2026-05-01T03:55:21.222Z)
Latitude
27.89224°
Longitude
-85.25285°
Altitude
636.762 km
Speed
7.537 km/s
True Right ascension
12h 50m 44s
True Declination
27° 44' 52"
Sunlit
Object was in full shadow at epoch
Visualization orbit readout
Latitude
Unknown
Longitude
Unknown
Altitude
Unknown
Speed
Unknown
Apparent Right ascension
Unknown
Apparent Declination
Unknown
Sunlit
N/A
Visualization observer readout
Local Sidereal Time
20:54:08
Azimuth
Unknown
Elevation
Unknown
Doppler factor
Unknown
Orbital elements
Apogee altitude
637.648 km
Perigee altitude
602.372 km
Semi-major axis
6,998.147 km
Eccentricity
0.00252
Inclination
98.569°
RAAN
8.1355°
Arg. of periapsis
277.7507°
True anomaly
234.05871°
Mean anomaly
234.2928°
Eccentric anomaly
234.17571°
Mean motion
3.70739 °/min
Orbital period
97.1 mins
BSTAR
0.0050607
Loading maneuver chart data...
Computing Atmospheric mass density...
Loading historical data...
Loading historical data...
Loading historical data...
Loading historical data...
Loading historical data...
Loading historical data...
Loading historical data...

Documentation

Showing up to 5 results
|